Powrót do katalogu

DELTA 1 DEB

AktywnyLEO
NORAD 7179·DEBRIS·🇺🇸 United States

Wystrzelony Nov 6, 1973 z Vandenberg Space Force Base

Loading…

Następne Przeloty (najbliższe 24 godziny)

TLE

ŚwieżeSource: Space-Track

Epoka: Sep 14, 2026, 09:44 UTC

1 07179U 73086EQ  26257.40605648  .00020461  00000-0  80772-2 0  9992
2 07179 102.6051 326.7801 0036580 213.3407 208.2740 14.28716728502837

Śledź DELTA 1 DEB w czasie rzeczywistym z AllMySat

Download on the App Store